Year,Month,Day,Hour,Minute,Value (Times are PST for temperature in C)
2015,07,18,00,00,16.80
2015,07,18,00,01,16.80
2015,07,18,00,02,16.90
2015,07,18,00,03,17.00
2015,07,18,00,04,17.00
2015,07,18,00,05,17.00
2015,07,18,00,06,16.90
2015,07,18,00,07,17.00
2015,07,18,00,08,17.00
2015,07,18,00,09,17.10
2015,07,18,00,10,17.10
2015,07,18,00,11,17.10
2015,07,18,00,12,17.20
2015,07,18,00,13,17.40
2015,07,18,00,14,17.60
2015,07,18,00,15,17.60
2015,07,18,00,16,17.70
2015,07,18,00,17,17.70
2015,07,18,00,18,17.70
2015,07,18,00,19,17.70
2015,07,18,00,20,17.60
2015,07,18,00,21,17.60
2015,07,18,00,22,17.60
2015,07,18,00,23,17.70
2015,07,18,00,24,17.70
2015,07,18,00,25,17.80
2015,07,18,00,26,17.80
2015,07,18,00,27,17.80
2015,07,18,00,28,17.70
2015,07,18,00,29,17.70
2015,07,18,00,30,17.60
2015,07,18,00,31,17.50
2015,07,18,00,32,17.40
2015,07,18,00,33,17.40
2015,07,18,00,34,17.30
2015,07,18,00,35,17.40
2015,07,18,00,36,17.40
2015,07,18,00,37,17.60
2015,07,18,00,38,17.70
2015,07,18,00,39,17.80
2015,07,18,00,40,17.90
2015,07,18,00,41,17.90
2015,07,18,00,42,17.90
2015,07,18,00,43,18.00
2015,07,18,00,44,18.00
2015,07,18,00,45,18.00
2015,07,18,00,46,18.00
2015,07,18,00,47,17.90
2015,07,18,00,48,18.00
2015,07,18,00,49,18.10
2015,07,18,00,50,18.10
2015,07,18,00,51,18.00
2015,07,18,00,52,17.90
2015,07,18,00,53,17.90
2015,07,18,00,54,17.90
2015,07,18,00,55,17.90
2015,07,18,00,56,17.90
2015,07,18,00,57,18.00
2015,07,18,00,58,18.10
2015,07,18,00,59,18.10
2015,07,18,01,00,18.10
2015,07,18,01,01,18.10
2015,07,18,01,02,18.10
2015,07,18,01,03,18.10
2015,07,18,01,04,18.10
2015,07,18,01,05,18.00
2015,07,18,01,06,18.00
2015,07,18,01,07,17.90
2015,07,18,01,08,17.90
2015,07,18,01,09,17.90
2015,07,18,01,10,17.90
2015,07,18,01,11,17.90
2015,07,18,01,12,17.80
2015,07,18,01,13,17.80
2015,07,18,01,14,17.80
2015,07,18,01,15,17.80
2015,07,18,01,16,17.70
2015,07,18,01,17,17.70
2015,07,18,01,18,17.60
2015,07,18,01,19,17.40
2015,07,18,01,20,17.10
2015,07,18,01,21,16.90
2015,07,18,01,22,16.80
2015,07,18,01,23,16.70
2015,07,18,01,24,16.70
2015,07,18,01,25,16.70
2015,07,18,01,26,16.70
2015,07,18,01,27,16.70
2015,07,18,01,28,16.70
2015,07,18,01,29,16.70
2015,07,18,01,30,16.70
2015,07,18,01,31,16.70
2015,07,18,01,32,16.70
2015,07,18,01,33,16.70
2015,07,18,01,34,16.60
2015,07,18,01,35,16.50
2015,07,18,01,36,16.40
2015,07,18,01,37,16.40
2015,07,18,01,38,16.30
2015,07,18,01,39,16.30
2015,07,18,01,40,16.20
2015,07,18,01,41,16.10
2015,07,18,01,42,16.00
2015,07,18,01,43,15.90
2015,07,18,01,44,15.80
2015,07,18,01,45,15.60
2015,07,18,01,46,15.40
2015,07,18,01,47,15.20
2015,07,18,01,48,15.10
2015,07,18,01,49,15.00
2015,07,18,01,50,14.90
2015,07,18,01,51,14.90
2015,07,18,01,52,14.90
2015,07,18,01,53,14.80
2015,07,18,01,54,14.80
2015,07,18,01,55,14.90
2015,07,18,01,56,14.90
2015,07,18,01,57,14.90
2015,07,18,01,58,15.00
2015,07,18,01,59,15.00
2015,07,18,02,00,15.00
2015,07,18,02,01,15.10
2015,07,18,02,02,15.10
2015,07,18,02,03,15.10
2015,07,18,02,04,15.10
2015,07,18,02,05,15.10
2015,07,18,02,06,15.00
2015,07,18,02,07,14.90
2015,07,18,02,08,14.90
2015,07,18,02,09,14.90
2015,07,18,02,10,14.90
2015,07,18,02,11,14.90
2015,07,18,02,12,14.90
2015,07,18,02,13,14.90
2015,07,18,02,14,14.80
2015,07,18,02,15,14.80
2015,07,18,02,16,14.80
2015,07,18,02,17,14.60
2015,07,18,02,18,14.40
2015,07,18,02,19,14.20
2015,07,18,02,20,14.10
2015,07,18,02,21,14.10
2015,07,18,02,22,14.00
2015,07,18,02,23,13.90
2015,07,18,02,24,13.80
2015,07,18,02,25,13.80
2015,07,18,02,26,13.80
2015,07,18,02,27,13.80
2015,07,18,02,28,13.70
2015,07,18,02,29,13.60
2015,07,18,02,30,13.50
2015,07,18,02,31,13.40
2015,07,18,02,32,13.40
2015,07,18,02,33,13.40
2015,07,18,02,34,13.40
2015,07,18,02,35,13.40
2015,07,18,02,36,13.40
2015,07,18,02,37,13.30
2015,07,18,02,38,13.30
2015,07,18,02,39,13.20
2015,07,18,02,40,13.20
2015,07,18,02,41,13.20
2015,07,18,02,42,13.20
2015,07,18,02,43,13.20
2015,07,18,02,44,13.20
2015,07,18,02,45,13.20
2015,07,18,02,46,13.20
2015,07,18,02,47,13.30
2015,07,18,02,48,13.30
2015,07,18,02,49,13.40
2015,07,18,02,50,13.40
2015,07,18,02,51,13.40
2015,07,18,02,52,13.40
2015,07,18,02,53,13.40
2015,07,18,02,54,13.40
2015,07,18,02,55,13.40
2015,07,18,02,56,13.40
2015,07,18,02,57,13.40
2015,07,18,02,58,13.50
2015,07,18,02,59,13.50
2015,07,18,03,00,13.50
2015,07,18,03,01,13.60
2015,07,18,03,02,13.60
2015,07,18,03,03,13.60
2015,07,18,03,04,13.60
2015,07,18,03,05,13.60
2015,07,18,03,06,13.70
2015,07,18,03,07,13.70
2015,07,18,03,08,13.70
2015,07,18,03,09,13.70
2015,07,18,03,10,13.70
2015,07,18,03,11,13.70
2015,07,18,03,12,13.60
2015,07,18,03,13,13.60
2015,07,18,03,14,13.50
2015,07,18,03,15,13.40
2015,07,18,03,16,13.40
2015,07,18,03,17,13.40
2015,07,18,03,18,13.40
2015,07,18,03,19,13.40
2015,07,18,03,20,13.40
2015,07,18,03,21,13.50
2015,07,18,03,22,13.50
2015,07,18,03,23,13.50
2015,07,18,03,24,13.50
2015,07,18,03,25,13.50
2015,07,18,03,26,13.50
2015,07,18,03,27,13.50
2015,07,18,03,28,13.50
2015,07,18,03,29,13.50
2015,07,18,03,30,13.50
2015,07,18,03,31,13.50
2015,07,18,03,32,13.50
2015,07,18,03,33,13.50
2015,07,18,03,34,13.40
2015,07,18,03,35,13.40
2015,07,18,03,36,13.40
2015,07,18,03,37,13.40
2015,07,18,03,38,13.40
2015,07,18,03,39,13.40
2015,07,18,03,40,13.40
2015,07,18,03,41,13.30
2015,07,18,03,42,13.30
2015,07,18,03,43,13.30
2015,07,18,03,44,13.30
2015,07,18,03,45,13.30
2015,07,18,03,46,13.30
2015,07,18,03,47,13.30
2015,07,18,03,48,13.30
2015,07,18,03,49,13.40
2015,07,18,03,50,13.40
2015,07,18,03,51,13.40
2015,07,18,03,52,13.40
2015,07,18,03,53,13.50
2015,07,18,03,54,13.50
2015,07,18,03,55,13.60
2015,07,18,03,56,13.60
2015,07,18,03,57,13.60
2015,07,18,03,58,13.60
2015,07,18,03,59,13.60
2015,07,18,04,00,13.60
2015,07,18,04,01,13.60
2015,07,18,04,02,13.70
2015,07,18,04,03,13.70
2015,07,18,04,04,13.70
2015,07,18,04,05,13.70
2015,07,18,04,06,13.70
2015,07,18,04,07,13.70
2015,07,18,04,08,13.70
2015,07,18,04,09,13.70
2015,07,18,04,10,13.80
2015,07,18,04,11,13.80
2015,07,18,04,12,13.80
2015,07,18,04,13,13.80
2015,07,18,04,14,13.80
2015,07,18,04,15,13.90
2015,07,18,04,16,13.90
2015,07,18,04,17,13.90
2015,07,18,04,18,13.90
2015,07,18,04,19,14.00
2015,07,18,04,20,14.00
2015,07,18,04,21,14.10
2015,07,18,04,22,14.10
2015,07,18,04,23,14.10
2015,07,18,04,24,14.20
2015,07,18,04,25,14.20
2015,07,18,04,26,14.20
2015,07,18,04,27,14.20
2015,07,18,04,28,14.20
2015,07,18,04,29,14.30
2015,07,18,04,30,14.30
2015,07,18,04,31,14.40
2015,07,18,04,32,14.40
2015,07,18,04,33,14.50
2015,07,18,04,34,14.50
2015,07,18,04,35,14.60
2015,07,18,04,36,14.60
2015,07,18,04,37,14.70
2015,07,18,04,38,14.80
2015,07,18,04,39,14.80
2015,07,18,04,40,14.90
2015,07,18,04,41,14.90
2015,07,18,04,42,15.00
2015,07,18,04,43,15.00
2015,07,18,04,44,15.10
2015,07,18,04,45,15.10
2015,07,18,04,46,15.10
2015,07,18,04,47,15.20
2015,07,18,04,48,15.20
2015,07,18,04,49,15.20
2015,07,18,04,50,15.20
2015,07,18,04,51,15.30
2015,07,18,04,52,15.30
2015,07,18,04,53,15.30
2015,07,18,04,54,15.30
2015,07,18,04,55,15.40
2015,07,18,04,56,15.40
2015,07,18,04,57,15.50
2015,07,18,04,58,15.50
2015,07,18,04,59,15.60
2015,07,18,05,00,15.60
2015,07,18,05,01,15.60
2015,07,18,05,02,15.70
2015,07,18,05,03,15.70
2015,07,18,05,04,15.70
2015,07,18,05,05,15.80
2015,07,18,05,06,15.80
2015,07,18,05,07,15.80
2015,07,18,05,08,15.80
2015,07,18,05,09,15.80
2015,07,18,05,10,15.90
2015,07,18,05,11,15.90
2015,07,18,05,12,15.90
2015,07,18,05,13,15.90
2015,07,18,05,14,16.00
2015,07,18,05,15,16.00
2015,07,18,05,16,16.10
2015,07,18,05,17,16.10
2015,07,18,05,18,16.10
2015,07,18,05,19,16.10
2015,07,18,05,20,16.20
2015,07,18,05,21,16.20
2015,07,18,05,22,16.20
2015,07,18,05,23,16.20
2015,07,18,05,24,16.20
2015,07,18,05,25,16.20
2015,07,18,05,26,16.10
2015,07,18,05,27,16.10
2015,07,18,05,28,16.10
2015,07,18,05,29,16.10
2015,07,18,05,30,16.10
2015,07,18,05,31,16.10
2015,07,18,05,32,16.10
2015,07,18,05,33,16.10
2015,07,18,05,34,16.10
2015,07,18,05,35,16.10
2015,07,18,05,36,16.10
2015,07,18,05,37,16.10
2015,07,18,05,38,16.10
2015,07,18,05,39,15.90
2015,07,18,05,40,15.60
2015,07,18,05,41,15.40
2015,07,18,05,42,15.30
2015,07,18,05,43,15.20
2015,07,18,05,44,15.20
2015,07,18,05,45,15.10
2015,07,18,05,46,15.10
2015,07,18,05,47,15.10
2015,07,18,05,48,15.10
2015,07,18,05,49,15.10
2015,07,18,05,50,15.10
2015,07,18,05,51,15.00
2015,07,18,05,52,15.10
2015,07,18,05,53,15.10
2015,07,18,05,54,15.10
2015,07,18,05,55,15.20
2015,07,18,05,56,15.30
2015,07,18,05,57,15.30
2015,07,18,05,58,15.40
2015,07,18,05,59,15.50
2015,07,18,06,00,15.50
2015,07,18,06,01,15.60
2015,07,18,06,02,15.70
2015,07,18,06,03,15.80
2015,07,18,06,04,15.90
2015,07,18,06,05,16.00
2015,07,18,06,06,16.10
2015,07,18,06,07,16.10
2015,07,18,06,08,16.20
2015,07,18,06,09,16.30
2015,07,18,06,10,16.30
2015,07,18,06,11,16.40
2015,07,18,06,12,16.50
2015,07,18,06,13,16.50
2015,07,18,06,14,16.60
2015,07,18,06,15,16.60
2015,07,18,06,16,16.70
2015,07,18,06,17,16.70
2015,07,18,06,18,16.80
2015,07,18,06,19,16.70
2015,07,18,06,20,16.70
2015,07,18,06,21,16.70
2015,07,18,06,22,16.80
2015,07,18,06,23,16.90
2015,07,18,06,24,16.90
2015,07,18,06,25,16.90
2015,07,18,06,26,16.90
2015,07,18,06,27,16.80
2015,07,18,06,28,16.80
2015,07,18,06,29,16.70
2015,07,18,06,30,16.70
2015,07,18,06,31,16.70
2015,07,18,06,32,16.80
2015,07,18,06,33,16.80
2015,07,18,06,34,16.80
2015,07,18,06,35,16.90
2015,07,18,06,36,16.90
2015,07,18,06,37,17.00
2015,07,18,06,38,16.90
2015,07,18,06,39,16.80
2015,07,18,06,40,16.70
2015,07,18,06,41,16.50
2015,07,18,06,42,16.40
2015,07,18,06,43,16.40
2015,07,18,06,44,16.30
2015,07,18,06,45,16.30
2015,07,18,06,46,16.30
2015,07,18,06,47,16.30
2015,07,18,06,48,16.30
2015,07,18,06,49,16.30
2015,07,18,06,50,16.30
2015,07,18,06,51,16.30
2015,07,18,06,52,16.30
2015,07,18,06,53,16.20
2015,07,18,06,54,16.20
2015,07,18,06,55,16.20
2015,07,18,06,56,16.20
2015,07,18,06,57,16.20
2015,07,18,06,58,16.20
2015,07,18,06,59,16.20
2015,07,18,07,00,16.20
2015,07,18,07,01,16.30
2015,07,18,07,02,16.30
2015,07,18,07,03,16.30
2015,07,18,07,04,16.30
2015,07,18,07,05,16.30
2015,07,18,07,06,16.30
2015,07,18,07,07,16.30
2015,07,18,07,08,16.30
2015,07,18,07,09,16.30
2015,07,18,07,10,16.30
2015,07,18,07,11,16.30
2015,07,18,07,12,16.30
2015,07,18,07,13,16.30
2015,07,18,07,14,16.20
2015,07,18,07,15,16.20
2015,07,18,07,16,16.20
2015,07,18,07,17,16.20
2015,07,18,07,18,16.20
2015,07,18,07,19,16.20
2015,07,18,07,20,16.20
2015,07,18,07,21,16.30
2015,07,18,07,22,16.30
2015,07,18,07,23,16.30
2015,07,18,07,24,16.30
2015,07,18,07,25,16.40
2015,07,18,07,26,16.40
2015,07,18,07,27,16.40
2015,07,18,07,28,16.50
2015,07,18,07,29,16.50
2015,07,18,07,30,16.60
2015,07,18,07,31,16.60
2015,07,18,07,32,16.70
2015,07,18,07,33,16.70
2015,07,18,07,34,16.80
2015,07,18,07,35,16.80
2015,07,18,07,36,16.80
2015,07,18,07,37,16.90
2015,07,18,07,38,17.00
2015,07,18,07,39,17.10
2015,07,18,07,40,17.20
2015,07,18,07,41,17.20
2015,07,18,07,42,17.20
2015,07,18,07,43,17.30
2015,07,18,07,44,17.20
2015,07,18,07,45,17.20
2015,07,18,07,46,17.20
2015,07,18,07,47,17.20
2015,07,18,07,48,17.20
2015,07,18,07,49,17.30
2015,07,18,07,50,17.30
2015,07,18,07,51,17.30
2015,07,18,07,52,17.30
2015,07,18,07,53,17.30
2015,07,18,07,54,17.30
2015,07,18,07,55,17.20
2015,07,18,07,56,17.20
2015,07,18,07,57,17.10
2015,07,18,07,58,17.10
2015,07,18,07,59,17.10
2015,07,18,08,00,17.20
2015,07,18,08,01,17.20
2015,07,18,08,02,17.30
2015,07,18,08,03,17.30
2015,07,18,08,04,17.40
2015,07,18,08,05,17.40
2015,07,18,08,06,17.40
2015,07,18,08,07,17.50
2015,07,18,08,08,17.50
2015,07,18,08,09,17.60
2015,07,18,08,10,17.50
2015,07,18,08,11,17.50
2015,07,18,08,12,17.30
2015,07,18,08,13,17.30
2015,07,18,08,14,17.30
2015,07,18,08,15,17.30
2015,07,18,08,16,17.30
2015,07,18,08,17,17.30
2015,07,18,08,18,17.40
2015,07,18,08,19,17.40
2015,07,18,08,20,17.50
2015,07,18,08,21,17.50
2015,07,18,08,22,17.50
2015,07,18,08,23,17.50
2015,07,18,08,24,17.60
2015,07,18,08,25,17.60
2015,07,18,08,26,17.60
2015,07,18,08,27,17.60
2015,07,18,08,28,17.60
2015,07,18,08,29,17.50
2015,07,18,08,30,17.50
2015,07,18,08,31,17.50
2015,07,18,08,32,17.40
2015,07,18,08,33,17.30
2015,07,18,08,34,17.10
2015,07,18,08,35,17.00
2015,07,18,08,36,16.90
2015,07,18,08,37,16.80
2015,07,18,08,38,16.70
2015,07,18,08,39,16.40
2015,07,18,08,40,16.20
2015,07,18,08,41,16.20
2015,07,18,08,42,16.20
2015,07,18,08,43,16.20
2015,07,18,08,44,16.20
2015,07,18,08,45,16.30
2015,07,18,08,46,16.40
2015,07,18,08,47,16.60
2015,07,18,08,48,16.70
2015,07,18,08,49,16.90
2015,07,18,08,50,17.00
2015,07,18,08,51,17.10
2015,07,18,08,52,17.20
2015,07,18,08,53,17.30
2015,07,18,08,54,17.40
2015,07,18,08,55,17.40
2015,07,18,08,56,17.40
2015,07,18,08,57,17.50
2015,07,18,08,58,17.50
2015,07,18,08,59,17.60
2015,07,18,09,00,17.60
2015,07,18,09,01,17.70
2015,07,18,09,02,17.70
2015,07,18,09,03,17.70
2015,07,18,09,04,17.70
2015,07,18,09,05,17.80
2015,07,18,09,06,17.80
2015,07,18,09,07,17.80
2015,07,18,09,08,17.80
2015,07,18,09,09,17.80
2015,07,18,09,10,17.90
2015,07,18,09,11,17.90
2015,07,18,09,12,17.90
2015,07,18,09,13,17.80
2015,07,18,09,14,17.80
2015,07,18,09,15,17.80
2015,07,18,09,16,17.80
2015,07,18,09,17,17.80
2015,07,18,09,18,17.80
2015,07,18,09,19,17.70
2015,07,18,09,20,17.60
2015,07,18,09,21,17.60
2015,07,18,09,22,17.60
2015,07,18,09,23,17.60
2015,07,18,09,24,17.60
2015,07,18,09,25,17.60
2015,07,18,09,26,17.60
2015,07,18,09,27,17.50
2015,07,18,09,28,17.50
2015,07,18,09,29,17.50
2015,07,18,09,30,17.50
2015,07,18,09,31,17.50
2015,07,18,09,32,17.50
2015,07,18,09,33,17.50
2015,07,18,09,34,17.50
2015,07,18,09,35,17.50
2015,07,18,09,36,17.50
2015,07,18,09,37,17.50
2015,07,18,09,38,17.50
2015,07,18,09,39,17.40
2015,07,18,09,40,17.50
2015,07,18,09,41,17.50
2015,07,18,09,42,17.50
2015,07,18,09,43,17.60
2015,07,18,09,44,17.60
2015,07,18,09,45,17.60
2015,07,18,09,46,17.60
2015,07,18,09,47,17.70
2015,07,18,09,48,17.70
2015,07,18,09,49,17.70
2015,07,18,09,50,17.70
2015,07,18,09,51,17.70
2015,07,18,09,52,17.50
2015,07,18,09,53,17.40
2015,07,18,09,54,17.40
2015,07,18,09,55,17.30
2015,07,18,09,56,17.30
2015,07,18,09,57,17.30
2015,07,18,09,58,17.30
2015,07,18,09,59,17.20
2015,07,18,10,00,17.20
2015,07,18,10,01,17.20
2015,07,18,10,02,17.10
2015,07,18,10,03,17.10
2015,07,18,10,04,17.10
2015,07,18,10,05,17.00
2015,07,18,10,06,17.00
2015,07,18,10,07,17.00
2015,07,18,10,08,17.10
2015,07,18,10,09,17.10
2015,07,18,10,10,17.10
2015,07,18,10,11,17.10
2015,07,18,10,12,17.20
2015,07,18,10,13,17.20
2015,07,18,10,14,17.20
2015,07,18,10,15,17.30
2015,07,18,10,16,17.30
2015,07,18,10,17,17.30
2015,07,18,10,18,17.30
2015,07,18,10,19,17.30
2015,07,18,10,20,17.20
2015,07,18,10,21,17.20
2015,07,18,10,22,17.20
2015,07,18,10,23,17.10
2015,07,18,10,24,17.10
2015,07,18,10,25,17.10
2015,07,18,10,26,17.10
2015,07,18,10,27,17.10
2015,07,18,10,28,17.00
2015,07,18,10,29,17.00
2015,07,18,10,30,17.00
2015,07,18,10,31,17.00
2015,07,18,10,32,17.00
2015,07,18,10,33,17.00
2015,07,18,10,34,17.00
2015,07,18,10,35,17.10
2015,07,18,10,36,17.20
2015,07,18,10,37,17.20
2015,07,18,10,38,17.10
2015,07,18,10,39,17.00
2015,07,18,10,40,17.00
2015,07,18,10,41,16.90
2015,07,18,10,42,16.80
2015,07,18,10,43,16.70
2015,07,18,10,44,16.60
2015,07,18,10,45,16.50
2015,07,18,10,46,16.60
2015,07,18,10,47,16.70
2015,07,18,10,48,16.80
2015,07,18,10,49,17.10
2015,07,18,10,50,17.30
2015,07,18,10,51,17.50
2015,07,18,10,52,17.80
2015,07,18,10,53,17.90
2015,07,18,10,54,18.00
2015,07,18,10,55,18.20
2015,07,18,10,56,18.20
2015,07,18,10,57,18.30
2015,07,18,10,58,18.30
2015,07,18,10,59,18.30
2015,07,18,11,00,18.40
2015,07,18,11,01,18.40
2015,07,18,11,02,18.40
2015,07,18,11,03,18.40
2015,07,18,11,04,18.40
2015,07,18,11,05,18.40
2015,07,18,11,06,18.30
2015,07,18,11,07,18.30
2015,07,18,11,08,18.30
2015,07,18,11,09,18.30
2015,07,18,11,10,18.30
2015,07,18,11,11,18.30
2015,07,18,11,12,18.40
2015,07,18,11,13,18.40
2015,07,18,11,14,18.40
2015,07,18,11,15,18.40
2015,07,18,11,16,18.40
2015,07,18,11,17,18.40
2015,07,18,11,18,18.40
2015,07,18,11,19,18.50
2015,07,18,11,20,18.60
2015,07,18,11,21,18.60
2015,07,18,11,22,18.60
2015,07,18,11,23,18.50
2015,07,18,11,24,18.40
2015,07,18,11,25,18.40
2015,07,18,11,26,18.40
2015,07,18,11,27,18.40
2015,07,18,11,28,18.50
2015,07,18,11,29,18.50
2015,07,18,11,30,18.60
2015,07,18,11,31,18.60
2015,07,18,11,32,18.60
2015,07,18,11,33,18.70
2015,07,18,11,34,18.70
2015,07,18,11,35,18.50
2015,07,18,11,36,18.40
2015,07,18,11,37,18.20
2015,07,18,11,38,18.00
2015,07,18,11,39,17.90
2015,07,18,11,40,17.80
2015,07,18,11,41,17.60
2015,07,18,11,42,17.40
2015,07,18,11,43,17.10
2015,07,18,11,44,17.00
2015,07,18,11,45,16.80
2015,07,18,11,46,17.00
2015,07,18,11,47,17.20
2015,07,18,11,48,17.40
2015,07,18,11,49,17.70
2015,07,18,11,50,17.90
2015,07,18,11,51,18.10
2015,07,18,11,52,18.20
2015,07,18,11,53,18.30
2015,07,18,11,54,18.30
2015,07,18,11,55,18.30
2015,07,18,11,56,18.30
2015,07,18,11,57,18.30
2015,07,18,11,58,18.30
2015,07,18,11,59,18.20
2015,07,18,12,00,18.20
2015,07,18,12,01,18.10
2015,07,18,12,02,18.10
2015,07,18,12,03,18.10
2015,07,18,12,04,18.10
2015,07,18,12,05,18.20
2015,07,18,12,06,18.20
2015,07,18,12,07,18.20
2015,07,18,12,08,18.30
2015,07,18,12,09,18.30
2015,07,18,12,10,18.30
2015,07,18,12,11,18.30
2015,07,18,12,12,18.30
2015,07,18,12,13,18.30
2015,07,18,12,14,18.30
2015,07,18,12,15,18.30
2015,07,18,12,16,18.30
2015,07,18,12,17,18.40
2015,07,18,12,18,18.40
2015,07,18,12,19,18.50
2015,07,18,12,20,18.60
2015,07,18,12,21,18.60
2015,07,18,12,22,18.60
2015,07,18,12,23,18.70
2015,07,18,12,24,18.70
2015,07,18,12,25,18.70
2015,07,18,12,26,18.70
2015,07,18,12,27,18.70
2015,07,18,12,28,18.70
2015,07,18,12,29,18.70
2015,07,18,12,30,18.70
2015,07,18,12,31,18.70
2015,07,18,12,32,18.80
2015,07,18,12,33,18.80
2015,07,18,12,34,18.80
2015,07,18,12,35,18.80
2015,07,18,12,36,18.80
2015,07,18,12,37,18.80
2015,07,18,12,38,18.80
2015,07,18,12,39,18.90
2015,07,18,12,40,18.90
2015,07,18,12,41,18.90
2015,07,18,12,42,18.90
2015,07,18,12,43,18.90
2015,07,18,12,44,18.90
2015,07,18,12,45,19.00
2015,07,18,12,46,18.90
2015,07,18,12,47,18.90
2015,07,18,12,48,18.90
2015,07,18,12,49,18.90
2015,07,18,12,50,18.90
2015,07,18,12,51,18.90
2015,07,18,12,52,18.90
2015,07,18,12,53,18.90
2015,07,18,12,54,18.90
2015,07,18,12,55,18.90
2015,07,18,12,56,19.00
2015,07,18,12,57,19.10
2015,07,18,12,58,19.10
2015,07,18,12,59,19.10
2015,07,18,13,00,19.20
2015,07,18,13,01,19.20
2015,07,18,13,02,19.30
2015,07,18,13,03,19.30
2015,07,18,13,04,19.30
2015,07,18,13,05,19.40
2015,07,18,13,06,19.40
2015,07,18,13,07,19.50
2015,07,18,13,08,19.60
2015,07,18,13,09,19.60
2015,07,18,13,10,19.70
2015,07,18,13,11,19.70
2015,07,18,13,12,19.70
2015,07,18,13,13,19.70
2015,07,18,13,14,19.70
2015,07,18,13,15,19.70
2015,07,18,13,16,19.50
2015,07,18,13,17,19.20
2015,07,18,13,18,18.90
2015,07,18,13,19,18.60
2015,07,18,13,20,18.40
2015,07,18,13,21,18.10
2015,07,18,13,22,17.90
2015,07,18,13,23,17.80
2015,07,18,13,24,17.60
2015,07,18,13,25,17.50
2015,07,18,13,26,17.40
2015,07,18,13,27,17.30
2015,07,18,13,28,17.30
2015,07,18,13,29,17.20
2015,07,18,13,30,17.10
2015,07,18,13,31,17.00
2015,07,18,13,32,16.90
2015,07,18,13,33,16.90
2015,07,18,13,34,16.80
2015,07,18,13,35,16.80
2015,07,18,13,36,16.80
2015,07,18,13,37,16.80
2015,07,18,13,38,16.80
2015,07,18,13,39,16.80
2015,07,18,13,40,16.70
2015,07,18,13,41,16.70
2015,07,18,13,42,16.70
2015,07,18,13,43,16.70
2015,07,18,13,44,16.80
2015,07,18,13,45,16.80
2015,07,18,13,46,17.00
2015,07,18,13,47,17.10
2015,07,18,13,48,17.20
2015,07,18,13,49,17.20
2015,07,18,13,50,17.20
2015,07,18,13,51,17.20
2015,07,18,13,52,17.20
2015,07,18,13,53,17.20
2015,07,18,13,54,17.20
2015,07,18,13,55,17.20
2015,07,18,13,56,17.10
2015,07,18,13,57,17.10
2015,07,18,13,58,17.20
2015,07,18,13,59,17.20
2015,07,18,14,00,17.30
2015,07,18,14,01,17.40
2015,07,18,14,02,17.50
2015,07,18,14,03,17.80
2015,07,18,14,04,17.90
2015,07,18,14,05,17.90
2015,07,18,14,06,17.90
2015,07,18,14,07,18.00
2015,07,18,14,08,18.10
2015,07,18,14,09,18.20
2015,07,18,14,10,18.30
2015,07,18,14,11,18.30
2015,07,18,14,12,18.40
2015,07,18,14,13,18.30
2015,07,18,14,14,18.10
2015,07,18,14,15,18.10
2015,07,18,14,16,18.10
2015,07,18,14,17,18.10
2015,07,18,14,18,18.10
2015,07,18,14,19,18.10
2015,07,18,14,20,18.10
2015,07,18,14,21,18.20
2015,07,18,14,22,18.20
2015,07,18,14,23,18.30
2015,07,18,14,24,18.30
2015,07,18,14,25,18.40
2015,07,18,14,26,18.40
2015,07,18,14,27,18.40
2015,07,18,14,28,18.30
2015,07,18,14,29,18.30
2015,07,18,14,30,18.30
2015,07,18,14,31,18.40
2015,07,18,14,32,18.50
2015,07,18,14,33,18.70
2015,07,18,14,34,18.80
2015,07,18,14,35,19.00
2015,07,18,14,36,19.10
2015,07,18,14,37,19.20
2015,07,18,14,38,19.30
2015,07,18,14,39,19.40
2015,07,18,14,40,19.50
2015,07,18,14,41,19.60
2015,07,18,14,42,19.60
2015,07,18,14,43,19.70
2015,07,18,14,44,19.80
2015,07,18,14,45,19.90
2015,07,18,14,46,20.00
2015,07,18,14,47,20.00
2015,07,18,14,48,20.10
2015,07,18,14,49,20.10
2015,07,18,14,50,20.10
2015,07,18,14,51,20.20
2015,07,18,14,52,20.30
2015,07,18,14,53,20.40
2015,07,18,14,54,20.40
2015,07,18,14,55,20.50
2015,07,18,14,56,20.60
2015,07,18,14,57,20.60
2015,07,18,14,58,20.70
2015,07,18,14,59,20.70
2015,07,18,15,00,20.80
2015,07,18,15,01,20.80
2015,07,18,15,02,20.80
2015,07,18,15,03,20.80
2015,07,18,15,04,20.80
2015,07,18,15,05,20.80
2015,07,18,15,06,20.60
2015,07,18,15,07,20.50
2015,07,18,15,08,20.30
2015,07,18,15,09,20.20
2015,07,18,15,10,20.10
2015,07,18,15,11,20.00
2015,07,18,15,12,20.00
2015,07,18,15,13,20.00
2015,07,18,15,14,20.10
2015,07,18,15,15,20.20
2015,07,18,15,16,20.30
2015,07,18,15,17,20.40
2015,07,18,15,18,20.50
2015,07,18,15,19,20.60
2015,07,18,15,20,20.70
2015,07,18,15,21,20.90
2015,07,18,15,22,20.90
2015,07,18,15,23,21.00
2015,07,18,15,24,21.10
2015,07,18,15,25,21.20
2015,07,18,15,26,21.20
2015,07,18,15,27,21.30
2015,07,18,15,28,21.30
2015,07,18,15,29,21.30
2015,07,18,15,30,21.30
2015,07,18,15,31,21.20
2015,07,18,15,32,21.20
2015,07,18,15,33,21.20
2015,07,18,15,34,21.10
2015,07,18,15,35,21.10
2015,07,18,15,36,21.00
2015,07,18,15,37,21.00
2015,07,18,15,38,20.90
2015,07,18,15,39,20.70
2015,07,18,15,40,20.50
2015,07,18,15,41,20.40
2015,07,18,15,42,20.20
2015,07,18,15,43,20.00
2015,07,18,15,44,19.90
2015,07,18,15,45,19.70
2015,07,18,15,46,19.50
2015,07,18,15,47,19.40
2015,07,18,15,48,19.30
2015,07,18,15,49,19.30
2015,07,18,15,50,19.30
2015,07,18,15,51,19.30
2015,07,18,15,52,19.40
2015,07,18,15,53,19.40
2015,07,18,15,54,19.40
2015,07,18,15,55,19.50
2015,07,18,15,56,19.50
2015,07,18,15,57,19.60
2015,07,18,15,58,19.70
2015,07,18,15,59,19.80
2015,07,18,16,00,19.80
2015,07,18,16,01,19.80
2015,07,18,16,02,19.90
2015,07,18,16,03,19.90
2015,07,18,16,04,20.00
2015,07,18,16,05,20.00
2015,07,18,16,06,20.10
2015,07,18,16,07,20.20
2015,07,18,16,08,20.20
2015,07,18,16,09,20.30
2015,07,18,16,10,20.40
2015,07,18,16,11,20.50
2015,07,18,16,12,20.60
2015,07,18,16,13,20.80
2015,07,18,16,14,20.90
2015,07,18,16,15,21.10
2015,07,18,16,16,21.20
2015,07,18,16,17,21.10
2015,07,18,16,18,20.80
2015,07,18,16,19,20.40
2015,07,18,16,20,20.00
2015,07,18,16,21,19.60
2015,07,18,16,22,19.30
2015,07,18,16,23,19.10
2015,07,18,16,24,19.00
2015,07,18,16,25,18.80
2015,07,18,16,26,18.80
2015,07,18,16,27,18.80
2015,07,18,16,28,18.90
2015,07,18,16,29,18.90
2015,07,18,16,30,19.00
2015,07,18,16,31,19.00
2015,07,18,16,32,18.90
2015,07,18,16,33,18.90
2015,07,18,16,34,18.80
2015,07,18,16,35,18.80
2015,07,18,16,36,18.80
2015,07,18,16,37,18.80
2015,07,18,16,38,18.80
2015,07,18,16,39,18.80
2015,07,18,16,40,18.90
2015,07,18,16,41,18.80
2015,07,18,16,42,18.80
2015,07,18,16,43,18.70
2015,07,18,16,44,18.60
2015,07,18,16,45,18.50
2015,07,18,16,46,18.40
2015,07,18,16,47,18.40
2015,07,18,16,48,18.30
2015,07,18,16,49,18.40
2015,07,18,16,50,18.40
2015,07,18,16,51,18.40
2015,07,18,16,52,18.50
2015,07,18,16,53,18.50
2015,07,18,16,54,18.50
2015,07,18,16,55,18.60
2015,07,18,16,56,18.60
2015,07,18,16,57,18.70
2015,07,18,16,58,18.70
2015,07,18,16,59,18.70
2015,07,18,17,00,18.80
2015,07,18,17,01,18.80
2015,07,18,17,02,18.80
2015,07,18,17,03,18.90
2015,07,18,17,04,19.00
2015,07,18,17,05,19.10
2015,07,18,17,06,19.20
2015,07,18,17,07,19.20
2015,07,18,17,08,19.30
2015,07,18,17,09,19.30
2015,07,18,17,10,19.40
2015,07,18,17,11,19.50
2015,07,18,17,12,19.60
2015,07,18,17,13,19.60
2015,07,18,17,14,19.70
2015,07,18,17,15,19.80
2015,07,18,17,16,19.90
2015,07,18,17,17,20.00
2015,07,18,17,18,20.10
2015,07,18,17,19,20.20